User: anonymous   Login
Location: La Fredeussais
(48.1780°N, 1.3980°W)
Time: 00:44:40
(UTC+00:00)
Language:

Meteor 1-18 Rocket - Orbit

View from above orbital plane
View from above orbital plane
View from above satellite
View from above satellite

Ground track
Ground track

The orbit data is extracted from the following two-line orbital elements,

1 07364U 74052B   21213.51169605  .00000109  00000-0  58726-4 0  9992
2 07364  81.2329 129.4106 0049146 231.7400 127.9342 14.06042377412808
Epoch (UTC): 01 August 2021 12:16:50
Eccentricity: 0.0049146
inclination: 81.2329°
perigee height: 837 km
apogee height: 908 km
right ascension of ascending node: 129.4106°
argument of perigee: 231.7400°
revolutions per day: 14.06042377
mean anomaly at epoch: 127.9342°
orbit number at epoch: 41280

The dashed part of the orbit path shows where the satellite is in the earth's shadow,  

DLR